Regional Weather Roundup
Issued by NWS Cleveland, OH

Home | Current Version | Previous Version | Text Only | Print | Product List | Glossary Off
Versions: 1 2 3 4 5 6 7 8 9 10 11 12 13 14 15 16 17 18 19 20 21 22 23 24 25 26 27 28 29 30 31 32 33 34 35 36 37 38 39 40 41 42 43 44 45 46 47 48 49 50

000
ASUS41 KCLE 060110
RWRCLE
OHIO REGIONAL WEATHER ROUNDUP
NATIONAL WEATHER SERVICE WILMINGTON, OH
800 PM EST THU MAR 05 2015

NOTE: "FAIR" INDICATES FEW OR NO CLOUDS BELOW 12,000 FEET WITH NO
SIGNIFICANT WEATHER AND/OR OBSTRUCTIONS TO VISIBILITY.

OHZ001>008-015>018-024>027-034-035-043-044-060200-
   NORTHWEST OHIO

CITY           SKY/WX    TMP DP  RH WIND       PRES   REMARKS
DEFIANCE       CLEAR     12   2  64 SW3       30.50R
FINDLAY        CLEAR     11   2  67 CALM      30.48R
TOLEDO EXPRESS CLEAR     10   0  63 CALM      30.49R
TOLEDO EXEC    CLEAR     15   0  51 W3        30.50R
LIMA           CLEAR     16   5  62 CALM      30.48R
$$

OHZ009>014-019>023-028>033-038-089-060200-
   NORTHEAST OHIO

CITY           SKY/WX    TMP DP  RH WIND       PRES   REMARKS
CLE-HOPKINS    PTCLDY    12   0  58 CALM      30.51R
CLE-LAKEFRONT  MOCLDY    12   2  64 CALM      30.50R
CUY CO. ARPT   PTCLDY    10   1  67 W5        30.48R WCI   2
LORAIN-ELYRIA  CLEAR     11   0  61 W5        30.49R WCI   3
ASHTABULA      CLEAR      6  -4  63 CALM      30.47R
AKRON-CANTON   CLEAR      7  -3  64 NW6       30.45R WCI  -3
WOOSTER        PTCLDY     5  -3  69 CALM      30.47R
MANSFIELD      MOCLDY    10   2  69 NW3       30.45R
YOUNGSTOWN     CLEAR      7  -3  64 NW5       30.44R WCI  -2
$$

OHZ042-051>053-060>062-070>072-077>081-060200-
  SOUTHWEST OHIO

CITY           SKY/WX    TMP DP  RH WIND       PRES   REMARKS
CINC-COVINGTON CLEAR     18   4  54 N8        30.50R WCI   8
CINC-LUNKEN    CLEAR     19   4  51 N5        30.54R WCI  12
HAMILTON       MOCLDY    18   5  57 N5        30.53R WCI  11
DAYTON         CLEAR     16   5  62 CALM      30.50R
WRIGHT-PAT AFB CLEAR     17   5  61 NW3       30.50R
DAYTON GENERAL CLEAR     17   4  56 N6        30.49R WCI   9
WILMINGTON     CLEAR     13   1  59 N7        30.49R WCI   3
$$

OHZ036-037-039>041-045>050-054>059-063>069-073>076-082>088-060200-
  CENTRAL AND SOUTHEAST OHIO

CITY           SKY/WX    TMP DP  RH WIND       PRES   REMARKS
COLUMBUS       PTCLDY    16   4  59 N7        30.50R WCI   6
OSU AIRPORT    CLEAR     14   1  56 N6        30.49R WCI   5
BOLTON FIELD   FAIR     N/A N/A N/A N6        30.50R
RICKENBACK AFB CLEAR     16   3  55 N7        30.50R WCI   6
NEWARK         PTCLDY    15   4  61 N5        30.49R WCI   8
MARION         CLEAR     12   1  61 CALM      30.48R
LANCASTER      PTCLDY    12   4  70 N5        30.50R WCI   4
ZANESVILLE     CLOUDY    15   3  59 NW8       30.48R WCI   4
NEW PHILLY     CLEAR     15   1  53 N8        30.49R WCI   4
$$



USA.gov is the U.S. government's official web portal to all federal, state and local government web resources and services.